This is the latest recevied weather packets stored in our database for station/object IV6ZJU-13. If no packets are shown the sender has not sent any weather packets the latest 10 day(s).
| Time | Temp. | Humidity | Pressure | Rain* | Wind** | Luminosity | Snow |
|---|---|---|---|---|---|---|---|
| 1777477149 | 25.56° C | 53% | 1005.8 hPa | - | - | - | - |
| 1777476249 | 26.11° C | 53% | 1005.9 hPa | - | - | - | - |
| 1777474449 | 25° C | 52% | 1005.9 hPa | - | - | - | - |
| 1777473548 | 25° C | 53% | 1006 hPa | - | - | - | - |
| 1777472648 | 22.22° C | 62% | 1005.9 hPa | - | - | - | - |
| 1777471748 | 22.22° C | 62% | 1005.9 hPa | - | - | - | - |
| 1777470848 | 21.67° C | 64% | 1005.9 hPa | - | - | - | - |
| 1777469947 | 21.67° C | 65% | 1005.9 hPa | - | - | - | - |
| 1777469047 | 21.11° C | 66% | 1006.1 hPa | - | - | - | - |
| 1777468147 | 21.11° C | 68% | 1006.3 hPa | - | - | - | - |
| 1777466347 | 20.56° C | 70% | 1006.4 hPa | - | - | - | - |
| 1777465447 | 20.56° C | 71% | 1006.3 hPa | - | - | - | - |
| 1777464547 | 20.56° C | 72% | 1006.6 hPa | - | - | - | - |
| 1777463646 | 20° C | 72% | 1006.6 hPa | - | - | - | - |
| 1777462746 | 20° C | 73% | 1006.6 hPa | - | - | - | - |
| 1777460946 | 19.44° C | 66% | 1006.7 hPa | - | - | - | - |
| 1777460048 | 19.44° C | 72% | 1007 hPa | - | - | - | - |
| 1777459146 | 19.44° C | 71% | 1007.1 hPa | - | - | - | - |
| 1777458245 | 19.44° C | 72% | 1007.2 hPa | - | - | - | - |
| 1777457345 | 18.89° C | 72% | 1007 hPa | - | - | - | - |
| 1777456448 | 18.89° C | 73% | 1007.5 hPa | - | - | - | - |
| 1777454648 | 18.89° C | 73% | 1007.6 hPa | - | - | - | - |
| 1777453748 | 18.33° C | 76% | 1007.5 hPa | - | - | - | - |
| 1777452848 | 18.33° C | 76% | 1007.3 hPa | - | - | - | - |
| 1777451947 | 18.33° C | 78% | 1007.4 hPa | - | - | - | - |
* Rain since midnight (hover to see other rain measurements)
** Current wind speed in m/s (hover to see current wind gust speed)